| time (UTC) | temp F | wind direction | speed knots | gust knots | rain 1hr in | rain 24hr in | rain mn in | humidity % | barometer mb |
| 20260506024528 | 66 | 141 | 0.0 | 1.7 | 0.00 | 0.00 | 0.00 | 61 | 1009.2 |
| 20260506024007 | 66 | 141 | 0.0 | 1.7 | 0.00 | 0.00 | 0.00 | 61 | 1009.1 |
| 20260506023513 | 66 | 157 | 0.0 | 1.7 | 0.00 | 0.00 | 0.00 | 61 | 1009.2 |
| 20260506023030 | 66 | 157 | 0.0 | 1.7 | 0.00 | 0.00 | 0.00 | 60 | 1009.2 |
| 20260506022516 | 66 | 170 | 0.0 | 1.7 | 0.00 | 0.00 | 0.00 | 60 | 1009.2 |
| 20260506022014 | 67 | 170 | 0.0 | 1.7 | 0.00 | 0.00 | 0.00 | 59 | 1009.2 |
| 20260506021504 | 67 | 170 | 0.0 | 1.7 | 0.00 | 0.00 | 0.00 | 59 | 1009.2 |
| 20260506021003 | 67 | 170 | 0.0 | 1.7 | 0.00 | 0.00 | 0.00 | 59 | 1009.1 |
| 20260506020504 | 67 | 170 | 0.0 | 1.7 | 0.00 | 0.00 | 0.00 | 59 | 1009.1 |
| 20260506020004 | 67 | 223 | 0.0 | 1.7 | 0.00 | 0.00 | 0.00 | 59 | 1009.1 |
| 20260506015503 | 67 | 239 | 0.0 | 4.3 | 0.00 | 0.00 | 0.00 | 59 | 1009.1 |
| 20260506015005 | 67 | 221 | 0.9 | 4.3 | 0.00 | 0.00 | 0.00 | 59 | 1009.2 |
| 20260506014504 | 67 | 215 | 0.9 | 2.6 | 0.00 | 0.00 | 0.00 | 59 | 1009.2 |
| 20260506014005 | 67 | 222 | 0.9 | 2.6 | 0.00 | 0.00 | 0.00 | 60 | 1009.1 |
| 20260506013505 | 67 | 239 | 0.9 | 1.7 | 0.00 | 0.00 | 0.00 | 60 | 1009.0 |
| 20260506013005 | 67 | 249 | 0.0 | 1.7 | 0.00 | 0.00 | 0.00 | 59 | 1008.9 |
| 20260506012503 | 67 | 219 | 0.0 | 2.6 | 0.00 | 0.00 | 0.00 | 59 | 1008.8 |
| 20260506012004 | 67 | 243 | 0.9 | 2.6 | 0.00 | 0.00 | 0.00 | 59 | 1008.9 |
| 20260506011511 | 67 | 260 | 0.9 | 2.6 | 0.00 | 0.00 | 0.00 | 60 | 1008.8 |
| 20260506011003 | 67 | 230 | 0.0 | 2.6 | 0.00 | 0.00 | 0.00 | 60 | 1008.7 |
| 20260506010506 | 67 | 212 | 0.9 | 2.6 | 0.00 | 0.00 | 0.00 | 60 | 1008.6 |
| 20260506010022 | 67 | 240 | 0.9 | 1.7 | 0.00 | 0.00 | 0.00 | 60 | 1008.7 |
| 20260506005504 | 67 | 151 | 0.0 | 1.7 | 0.00 | 0.00 | 0.00 | 60 | 1008.7 |
| 20260506005003 | 67 | 140 | 0.0 | 2.6 | 0.00 | 0.00 | 0.00 | 59 | 1008.8 |
| 20260506004506 | 67 | 140 | 0.0 | 2.6 | 0.00 | 0.00 | 0.00 | 59 | 1008.7 |
| 20260506004003 | 68 | 149 | 0.0 | 4.3 | 0.00 | 0.00 | 0.00 | 58 | 1008.6 |
| 20260506003503 | 68 | 193 | 0.9 | 4.3 | 0.00 | 0.00 | 0.00 | 58 | 1008.6 |
| 20260506003004 | 68 | 194 | 1.7 | 4.3 | 0.00 | 0.00 | 0.00 | 58 | 1008.5 |
| 20260506002503 | 68 | 225 | 0.9 | 4.3 | 0.00 | 0.00 | 0.00 | 57 | 1008.4 |
| 20260506002004 | 68 | 196 | 0.9 | 4.3 | 0.00 | 0.00 | 0.00 | 57 | 1008.3 |
| 20260506001506 | 68 | 220 | 0.0 | 3.5 | 0.00 | 0.00 | 0.00 | 57 | 1008.1 |
| 20260506001003 | 68 | 213 | 1.7 | 3.5 | 0.00 | 0.00 | 0.00 | 57 | 1008.1 |
| 20260506000505 | 68 | 227 | 0.9 | 3.5 | 0.00 | 0.00 | 0.00 | 57 | 1007.9 |
| 20260506000013 | 69 | 259 | 1.7 | 5.2 | 0.00 | 0.00 | 0.00 | 57 | 1008.0 |
| 20260505235504 | 69 | 237 | 1.7 | 5.2 | 0.00 | 0.00 | 0.00 | 57 | 1008.0 |
| 20260505235006 | 69 | 261 | 2.6 | 5.2 | 0.00 | 0.00 | 0.00 | 57 | 1008.0 |
| 20260505234506 | 69 | 288 | 1.7 | 4.3 | 0.00 | 0.00 | 0.00 | 57 | 1007.8 |
| 20260505234004 | 69 | 320 | 0.9 | 4.3 | 0.00 | 0.00 | 0.00 | 57 | 1007.8 |
| 20260505233504 | 69 | 263 | 1.7 | 4.3 | 0.00 | 0.00 | 0.00 | 57 | 1007.8 |
| 20260505233008 | 69 | 256 | 1.7 | 7.0 | 0.00 | 0.00 | 0.00 | 56 | 1007.9 |
| 20260505232506 | 69 | 278 | 2.6 | 7.8 | 0.00 | 0.00 | 0.00 | 57 | 1008.0 |
| 20260505232003 | 69 | 267 | 4.3 | 7.8 | 0.00 | 0.00 | 0.00 | 56 | 1008.0 |
| 20260505231510 | 69 | 270 | 2.6 | 6.1 | 0.00 | 0.00 | 0.00 | 56 | 1008.0 |
| 20260505231006 | 69 | 289 | 1.7 | 5.2 | 0.00 | 0.00 | 0.00 | 56 | 1007.9 |
| 20260505230503 | 70 | 279 | 1.7 | 6.1 | 0.00 | 0.00 | 0.00 | 56 | 1008.0 |
| 20260505230006 | 70 | 283 | 1.7 | 7.0 | 0.00 | 0.00 | 0.00 | 54 | 1008.0 |
| 20260505225503 | 70 | 267 | 3.5 | 7.0 | 0.00 | 0.00 | 0.00 | 53 | 1008.0 |
| 20260505225003 | 70 | 252 | 2.6 | 7.0 | 0.00 | 0.00 | 0.00 | 52 | 1008.0 |
| 20260505224510 | 71 | 254 | 2.6 | 14.8 | 0.00 | 0.00 | 0.00 | 52 | 1008.2 |
| 20260505224005 | 71 | 250 | 7.0 | 14.8 | 0.00 | 0.00 | 0.00 | 52 | 1008.3 |
| 20260505223505 | 71 | 277 | 6.1 | 14.8 | 0.00 | 0.00 | 0.00 | 51 | 1008.3 |
| 20260505223009 | 72 | 267 | 2.6 | 7.0 | 0.00 | 0.00 | 0.00 | 48 | 1008.3 |
| 20260505222505 | 72 | 253 | 0.9 | 7.0 | 0.00 | 0.00 | 0.00 | 47 | 1008.0 |
| 20260505222007 | 72 | 267 | 1.7 | 11.3 | 0.00 | 0.00 | 0.00 | 46 | 1008.0 |
| 20260505221508 | 73 | 203 | 2.6 | 11.3 | 0.00 | 0.00 | 0.00 | 46 | 1008.2 |
| 20260505221004 | 73 | 253 | 3.5 | 10.4 | 0.00 | 0.00 | 0.00 | 45 | 1008.0 |
| 20260505220503 | 73 | 248 | 4.3 | 12.2 | 0.00 | 0.00 | 0.00 | 45 | 1008.1 |
| 20260505220011 | 73 | 234 | 5.2 | 13.9 | 0.00 | 0.00 | 0.00 | 45 | 1008.0 |
| 20260505215507 | 73 | 254 | 5.2 | 13.9 | 0.00 | 0.00 | 0.00 | 45 | 1008.0 |
| 20260505215006 | 73 | 223 | 6.1 | 11.3 | 0.00 | 0.00 | 0.00 | 44 | 1007.9 |
| 20260505214510 | 73 | 247 | 3.5 | 7.8 | 0.00 | 0.00 | 0.00 | 46 | 1007.8 |
| 20260505214006 | 73 | 208 | 1.7 | 8.7 | 0.00 | 0.00 | 0.00 | 46 | 1007.7 |
| 20260505213506 | 73 | 231 | 3.5 | 8.7 | 0.00 | 0.00 | 0.00 | 45 | 1007.5 |
| 20260505213019 | 73 | 235 | 2.6 | 8.7 | 0.00 | 0.00 | 0.00 | 46 | 1007.4 |
| 20260505212508 | 73 | 188 | 2.6 | 7.8 | 0.00 | 0.00 | 0.00 | 46 | 1007.3 |
| 20260505212005 | 73 | 281 | 2.6 | 7.8 | 0.00 | 0.00 | 0.00 | 46 | 1007.2 |
| 20260505211512 | 73 | 229 | 2.6 | 8.7 | 0.00 | 0.00 | 0.00 | 46 | 1007.1 |
| 20260505211005 | 72 | 240 | 3.5 | 9.6 | 0.00 | 0.00 | 0.00 | 46 | 1007.2 |
| 20260505210503 | 72 | 249 | 3.5 | 9.6 | 0.00 | 0.00 | 0.00 | 46 | 1007.3 |
| 20260505210008 | 72 | 282 | 2.6 | 7.8 | 0.00 | 0.00 | 0.00 | 47 | 1007.3 |
| 20260505205508 | 72 | 252 | 3.5 | 8.7 | 0.00 | 0.00 | 0.00 | 47 | 1007.3 |
| 20260505205007 | 72 | 290 | 4.3 | 11.3 | 0.00 | 0.00 | 0.00 | 49 | 1007.4 |
| 20260505204513 | 72 | 237 | 4.3 | 11.3 | 0.00 | 0.00 | 0.00 | 47 | 1007.5 |
| 20260505204010 | 72 | 286 | 5.2 | 17.4 | 0.00 | 0.00 | 0.00 | 48 | 1007.5 |
| 20260505203505 | 73 | 238 | 8.7 | 16.5 | 0.00 | 0.00 | 0.00 | 44 | 1007.5 |
| 20260505203026 | 75 | 252 | 7.0 | 15.6 | 0.00 | 0.00 | 0.00 | 39 | 1007.4 |
| 20260505202505 | 75 | 207 | 7.8 | 14.8 | 0.00 | 0.00 | 0.00 | 39 | 1007.2 |
| 20260505202008 | 75 | 198 | 5.2 | 13.0 | 0.00 | 0.00 | 0.00 | 39 | 1007.0 |
| 20260505201518 | 75 | 217 | 4.3 | 15.6 | 0.00 | 0.00 | 0.00 | 38 | 1007.0 |
| 20260505201005 | 76 | 202 | 7.8 | 15.6 | 0.00 | 0.00 | 0.00 | 38 | 1007.1 |
| 20260505200505 | 76 | 239 | 6.1 | 13.9 | 0.00 | 0.00 | 0.00 | 37 | 1006.9 |
| 20260505200014 | 76 | 194 | 8.7 | 13.0 | 0.00 | 0.00 | 0.00 | 38 | 1006.9 |
| 20260505195507 | 76 | 222 | 4.3 | 13.0 | 0.00 | 0.00 | 0.00 | 38 | 1007.0 |
| 20260505195006 | 76 | 252 | 5.2 | 13.0 | 0.00 | 0.00 | 0.00 | 37 | 1007.1 |
| 20260505194512 | 76 | 277 | 7.0 | 13.9 | 0.00 | 0.00 | 0.00 | 38 | 1007.1 |
| 20260505194007 | 76 | 180 | 5.2 | 17.4 | 0.00 | 0.00 | 0.00 | 36 | 1007.1 |
| 20260505193506 | 76 | 252 | 7.0 | 17.4 | 0.00 | 0.00 | 0.00 | 34 | 1006.9 |
| 20260505193018 | 76 | 216 | 7.8 | 17.4 | 0.00 | 0.00 | 0.00 | 35 | 1007.0 |
| 20260505192506 | 77 | 207 | 7.8 | 17.4 | 0.00 | 0.00 | 0.00 | 34 | 1006.9 |
| 20260505192012 | 77 | 232 | 7.8 | 17.4 | 0.00 | 0.00 | 0.00 | 35 | 1007.1 |
| 20260505191515 | 77 | 252 | 9.6 | 17.4 | 0.00 | 0.00 | 0.00 | 34 | 1006.9 |
| 20260505191009 | 77 | 226 | 8.7 | 14.8 | 0.00 | 0.00 | 0.00 | 36 | 1006.8 |
| 20260505190512 | 77 | 205 | 7.8 | 15.6 | 0.00 | 0.00 | 0.00 | 36 | 1007.0 |
| 20260505190026 | 77 | 209 | 8.7 | 15.6 | 0.00 | 0.00 | 0.00 | 36 | 1006.9 |
| 20260505185507 | 77 | 227 | 4.3 | 13.9 | 0.00 | 0.00 | 0.00 | 37 | 1006.8 |
| 20260505185005 | 77 | 168 | 6.1 | 13.9 | 0.00 | 0.00 | 0.00 | 39 | 1006.8 |
| 20260505184518 | 77 | 283 | 5.2 | 20.0 | 0.00 | 0.00 | 0.00 | 38 | 1006.8 |
| 20260505184006 | 77 | 235 | 5.2 | 20.0 | 0.00 | 0.00 | 0.00 | 38 | 1006.8 |
| 20260505183505 | 77 | 192 | 7.8 | 17.4 | 0.00 | 0.00 | 0.00 | 38 | 1006.9 |
| 20260505183016 | 77 | 255 | 7.8 | 17.4 | 0.00 | 0.00 | 0.00 | 37 | 1007.1 |
| 20260505182506 | 76 | 260 | 3.5 | 18.2 | 0.00 | 0.00 | 0.00 | 40 | 1007.2 |
| 20260505182012 | 76 | 195 | 8.7 | 18.2 | 0.00 | 0.00 | 0.00 | 37 | 1007.4 |
| 20260505181519 | 76 | 161 | 7.8 | 20.0 | 0.00 | 0.00 | 0.00 | 38 | 1007.3 |
| 20260505181007 | 77 | 195 | 10.4 | 20.0 | 0.00 | 0.00 | 0.00 | 38 | 1007.5 |
| 20260505180512 | 77 | 257 | 8.7 | 17.4 | 0.00 | 0.00 | 0.00 | 39 | 1007.7 |
| 20260505180021 | 76 | 210 | 7.8 | 17.4 | 0.00 | 0.00 | 0.00 | 40 | 1007.7 |
| 20260505175509 | 76 | 179 | 6.1 | 11.3 | 0.00 | 0.00 | 0.00 | 41 | 1007.6 |
| 20260505175014 | 76 | 223 | 4.3 | 10.4 | 0.00 | 0.00 | 0.00 | 42 | 1007.7 |
| 20260505174519 | 76 | 217 | 4.3 | 11.3 | 0.00 | 0.00 | 0.00 | 42 | 1007.7 |
| 20260505174012 | 76 | 221 | 5.2 | 11.3 | 0.00 | 0.00 | 0.00 | 42 | 1007.8 |
| 20260505173507 | 76 | 234 | 4.3 | 18.2 | 0.00 | 0.00 | 0.00 | 42 | 1007.7 |
| 20260505173034 | 75 | 254 | 5.2 | 18.2 | 0.00 | 0.00 | 0.00 | 42 | 1008.0 |
| 20260505172506 | 75 | 208 | 7.8 | 12.2 | 0.00 | 0.00 | 0.00 | 42 | 1008.2 |
| 20260505172008 | 75 | 215 | 6.1 | 19.1 | 0.00 | 0.00 | 0.00 | 43 | 1008.1 |
| 20260505171521 | 75 | 243 | 8.7 | 19.1 | 0.00 | 0.00 | 0.00 | 44 | 1008.1 |
| 20260505171003 | 75 | 221 | 7.8 | 17.4 | 0.00 | 0.00 | 0.00 | 44 | 1008.1 |
| 20260505170504 | 75 | 259 | 7.0 | 19.1 | 0.00 | 0.00 | 0.00 | 44 | 1008.2 |
| 20260505170005 | 75 | 239 | 4.3 | 19.1 | 0.00 | 0.00 | 0.00 | 45 | 1008.2 |
| 20260505165504 | 74 | 219 | 5.2 | 16.5 | 0.00 | 0.00 | 0.00 | 45 | 1008.2 |
| 20260505165003 | 74 | 179 | 8.7 | 18.2 | 0.00 | 0.00 | 0.00 | 43 | 1008.3 |
| 20260505164504 | 75 | 184 | 9.6 | 18.2 | 0.00 | 0.00 | 0.00 | 42 | 1008.1 |
| 20260505164002 | 75 | 184 | 6.1 | 10.4 | 0.00 | 0.00 | 0.00 | 46 | 1008.0 |
| 20260505163508 | 75 | 206 | 6.1 | 11.3 | 0.00 | 0.00 | 0.00 | 45 | 1008.0 |
| 20260505163010 | 75 | 232 | 6.1 | 15.6 | 0.00 | 0.00 | 0.00 | 47 | 1008.1 |
| 20260505162503 | 74 | 232 | 7.8 | 15.6 | 0.00 | 0.00 | 0.00 | 46 | 1008.2 |
| 20260505162008 | 74 | 243 | 7.8 | 15.6 | 0.00 | 0.00 | 0.00 | 47 | 1008.4 |
| 20260505161515 | 74 | 271 | 4.3 | 9.6 | 0.00 | 0.00 | 0.00 | 49 | 1008.5 |
| 20260505161007 | 73 | 257 | 4.3 | 14.8 | 0.00 | 0.00 | 0.00 | 48 | 1008.8 |
| 20260505160510 | 73 | 191 | 5.2 | 18.2 | 0.00 | 0.00 | 0.00 | 47 | 1008.8 |
| 20260505153010 | 74 | 196 | 10.4 | 16.5 | 0.00 | 0.00 | 0.00 | 46 | 1008.9 |
| 20260505152504 | 73 | 180 | 7.8 | 15.6 | 0.00 | 0.00 | 0.00 | 47 | 1009.0 |
| 20260505152006 | 73 | 183 | 7.8 | 15.6 | 0.00 | 0.00 | 0.00 | 48 | 1009.0 |
| 20260505151513 | 74 | 168 | 7.8 | 15.6 | 0.00 | 0.00 | 0.00 | 46 | 1009.0 |
| 20260505151007 | 74 | 179 | 7.0 | 15.6 | 0.00 | 0.00 | 0.00 | 48 | 1009.0 |
| 20260505150507 | 73 | 221 | 7.8 | 13.9 | 0.00 | 0.00 | 0.00 | 48 | 1009.0 |
| 20260505140508 | 69 | 180 | 2.6 | 10.4 | 0.00 | 0.00 | 0.00 | 56 | 1009.0 |
| 20260505125011 | 62 | 78 | 0.0 | 1.7 | 0.00 | 0.00 | 0.00 | 72 | 1009.4 |
| 20260505124522 | 60 | 78 | 0.0 | 1.7 | 0.00 | 0.00 | 0.00 | 74 | 1009.4 |
| 20260505124009 | 60 | 78 | 0.0 | 3.5 | 0.00 | 0.00 | 0.00 | 75 | 1009.5 |
| 20260505123509 | 60 | 78 | 0.0 | 5.2 | 0.00 | 0.00 | 0.00 | 73 | 1009.6 |
| 20260505123025 | 59 | 76 | 1.7 | 5.2 | 0.00 | 0.00 | 0.00 | 74 | 1009.6 |
| 20260505122509 | 59 | 91 | 1.7 | 3.5 | 0.00 | 0.00 | 0.00 | 75 | 1009.7 |
| 20260505122004 | 59 | 117 | 0.9 | 2.6 | 0.00 | 0.00 | 0.00 | 74 | 1009.8 |
| 20260505121507 | 59 | 82 | 1.7 | 2.6 | 0.00 | 0.00 | 0.00 | 75 | 1009.8 |
| 20260505121004 | 59 | 86 | 1.7 | 2.6 | 0.00 | 0.00 | 0.00 | 75 | 1009.8 |
| 20260505120505 | 59 | 92 | 0.0 | 1.7 | 0.00 | 0.00 | 0.00 | 76 | 1009.9 |
| 20260505120042 | 59 | 142 | 0.0 | 1.7 | 0.00 | 0.00 | 0.00 | 76 | 1009.9 |
| 20260505115504 | 59 | 142 | 0.0 | 1.7 | 0.00 | 0.00 | 0.00 | 75 | 1009.8 |
| 20260505115006 | 58 | 142 | 0.0 | 1.7 | 0.00 | 0.00 | 0.00 | 78 | 1009.8 |
| 20260505114518 | 58 | 142 | 0.0 | 1.7 | 0.00 | 0.00 | 0.00 | 78 | 1009.6 |
| 20260505114006 | 58 | 98 | 0.0 | 1.7 | 0.00 | 0.00 | 0.00 | 78 | 1009.6 |
| 20260505113508 | 58 | 98 | 0.0 | 1.7 | 0.00 | 0.00 | 0.00 | 79 | 1009.5 |
| 20260505113021 | 58 | 98 | 0.0 | 1.7 | 0.00 | 0.00 | 0.00 | 79 | 1009.4 |
| 20260505112508 | 57 | 98 | 0.0 | 1.7 | 0.00 | 0.00 | 0.00 | 77 | 1009.4 |
| 20260505112008 | 57 | 99 | 0.9 | 1.7 | 0.00 | 0.00 | 0.00 | 76 | 1009.3 |
| 20260505111528 | 57 | 99 | 0.0 | 1.7 | 0.00 | 0.00 | 0.00 | 76 | 1009.2 |
| 20260505111010 | 57 | 99 | 0.0 | 1.7 | 0.00 | 0.00 | 0.00 | 75 | 1009.3 |
| 20260505110507 | 57 | 79 | 0.0 | 1.7 | 0.00 | 0.00 | 0.00 | 74 | 1009.3 |
| 20260505102015 | 56 | 241 | 0.9 | 4.3 | 0.00 | 0.00 | 0.00 | 75 | 1009.0 |
| 20260505101526 | 55 | 182 | 0.0 | 4.3 | 0.00 | 0.00 | 0.00 | 77 | 1009.0 |
| 20260505101010 | 56 | 136 | 1.7 | 2.6 | 0.00 | 0.00 | 0.00 | 75 | 1009.0 |
| 20260505100510 | 55 | 74 | 0.0 | 2.6 | 0.00 | 0.00 | 0.00 | 73 | 1009.0 |
| 20260505100028 | 55 | 254 | 1.7 | 3.5 | 0.00 | 0.00 | 0.00 | 73 | 1009.2 |
| 20260505095508 | 56 | 78 | 0.0 | 3.5 | 0.00 | 0.00 | 0.00 | 71 | 1009.0 |
| 20260505095008 | 56 | 191 | 0.9 | 1.7 | 0.00 | 0.00 | 0.00 | 70 | 1009.0 |
| 20260505094513 | 56 | 172 | 0.0 | 1.7 | 0.00 | 0.00 | 0.00 | 70 | 1009.0 |
| 20260505094006 | 56 | 172 | 0.0 | 5.2 | 0.00 | 0.00 | 0.00 | 70 | 1008.9 |
| 20260505093505 | 57 | 172 | 0.9 | 5.2 | 0.00 | 0.00 | 0.00 | 70 | 1008.7 |
| 20260505093018 | 57 | 96 | 1.7 | 3.5 | 0.00 | 0.00 | 0.00 | 69 | 1008.6 |
| 20260505092507 | 57 | 109 | 0.9 | 5.2 | 0.00 | 0.00 | 0.00 | 69 | 1008.5 |
| 20260505092009 | 57 | 117 | 1.7 | 5.2 | 0.00 | 0.00 | 0.00 | 68 | 1008.6 |
| 20260505091528 | 57 | 105 | 1.7 | 3.5 | 0.00 | 0.00 | 0.00 | 68 | 1008.5 |
| 20260505091009 | 57 | 114 | 0.9 | 2.6 | 0.00 | 0.00 | 0.00 | 68 | 1008.5 |
| 20260505090508 | 57 | 122 | 1.7 | 3.5 | 0.00 | 0.00 | 0.00 | 68 | 1008.5 |
| 20260505090039 | 57 | 127 | 1.7 | 3.5 | 0.00 | 0.00 | 0.00 | 69 | 1008.4 |
| 20260505085515 | 57 | 91 | 0.9 | 3.5 | 0.00 | 0.00 | 0.00 | 69 | 1008.5 |
| 20260505085008 | 57 | 160 | 1.7 | 3.5 | 0.00 | 0.00 | 0.00 | 69 | 1008.6 |
| 20260505084529 | 56 | 123 | 1.7 | 2.6 | 0.00 | 0.00 | 0.00 | 69 | 1008.5 |
| 20260505084007 | 57 | 97 | 0.9 | 3.5 | 0.00 | 0.00 | 0.00 | 69 | 1008.5 |
| 20260505083507 | 57 | 155 | 1.7 | 5.2 | 0.00 | 0.00 | 0.00 | 68 | 1008.5 |
| 20260505083018 | 57 | 119 | 0.9 | 5.2 | 0.00 | 0.00 | 0.00 | 68 | 1008.5 |
| 20260505082507 | 57 | 132 | 1.7 | 3.5 | 0.00 | 0.00 | 0.00 | 69 | 1008.6 |
| 20260505082008 | 57 | 122 | 1.7 | 5.2 | 0.00 | 0.00 | 0.00 | 68 | 1008.5 |
| 20260505081510 | 57 | 94 | 1.7 | 6.1 | 0.00 | 0.00 | 0.00 | 68 | 1008.5 |
| 20260505081004 | 57 | 90 | 1.7 | 6.1 | 0.00 | 0.00 | 0.00 | 68 | 1008.5 |
| 20260505080504 | 57 | 109 | 1.7 | 3.5 | 0.00 | 0.00 | 0.00 | 68 | 1008.5 |
| 20260505080003 | 57 | 123 | 1.7 | 3.5 | 0.00 | 0.00 | 0.00 | 68 | 1008.5 |
| 20260505075502 | 57 | 112 | 1.7 | 3.5 | 0.00 | 0.00 | 0.00 | 67 | 1008.4 |
| 20260505075003 | 57 | 133 | 0.9 | 3.5 | 0.00 | 0.00 | 0.00 | 68 | 1008.4 |
| 20260505074507 | 57 | 123 | 1.7 | 5.2 | 0.00 | 0.00 | 0.00 | 67 | 1008.3 |
| 20260505074005 | 57 | 126 | 1.7 | 5.2 | 0.00 | 0.00 | 0.00 | 69 | 1008.3 |
| 20260505073506 | 57 | 109 | 2.6 | 4.3 | 0.00 | 0.00 | 0.00 | 70 | 1008.2 |
| 20260505073027 | 56 | 117 | 1.7 | 4.3 | 0.00 | 0.00 | 0.00 | 69 | 1008.3 |
| 20260505072511 | 56 | 88 | 1.7 | 3.5 | 0.00 | 0.00 | 0.00 | 72 | 1008.2 |
| 20260505072007 | 57 | 146 | 0.9 | 2.6 | 0.00 | 0.00 | 0.00 | 72 | 1008.2 |
| 20260505071520 | 57 | 86 | 0.0 | 1.7 | 0.00 | 0.00 | 0.00 | 73 | 1008.2 |
| 20260505071003 | 57 | 86 | 0.0 | 1.7 | 0.00 | 0.00 | 0.00 | 72 | 1008.2 |
| 20260505070505 | 58 | 86 | 0.9 | 3.5 | 0.00 | 0.00 | 0.00 | 72 | 1008.2 |
| 20260505070006 | 58 | 78 | 0.9 | 5.2 | 0.00 | 0.00 | 0.00 | 70 | 1008.2 |
| 20260505065503 | 58 | 78 | 1.7 | 5.2 | 0.00 | 0.00 | 0.00 | 69 | 1008.1 |
| 20260505065003 | 59 | 107 | 1.7 | 2.6 | 0.00 | 0.00 | 0.00 | 63 | 1008.2 |
| 20260505064518 | 59 | 109 | 0.9 | 2.6 | 0.00 | 0.00 | 0.00 | 62 | 1008.3 |
| 20260505064005 | 59 | 78 | 0.9 | 1.7 | 0.00 | 0.00 | 0.00 | 61 | 1008.5 |
| 20260505063505 | 59 | 78 | 0.0 | 2.6 | 0.00 | 0.00 | 0.00 | 60 | 1008.5 |
| 20260505063012 | 60 | 78 | 0.0 | 3.5 | 0.00 | 0.00 | 0.00 | 60 | 1008.5 |
| 20260505062505 | 60 | 97 | 1.7 | 3.5 | 0.00 | 0.00 | 0.00 | 60 | 1008.5 |
| 20260505062006 | 60 | 94 | 1.7 | 3.5 | 0.00 | 0.00 | 0.00 | 59 | 1008.5 |
| 20260505061530 | 60 | 106 | 0.0 | 3.5 | 0.00 | 0.00 | 0.00 | 59 | 1008.3 |
| 20260505061007 | 61 | 114 | 1.7 | 2.6 | 0.00 | 0.00 | 0.00 | 58 | 1008.4 |
| 20260505060508 | 61 | 90 | 0.9 | 2.6 | 0.00 | 0.00 | 0.00 | 57 | 1008.5 |
| 20260505060022 | 62 | 108 | 0.9 | 3.5 | 0.00 | 0.00 | 0.00 | 55 | 1008.5 |
| 20260505055503 | 63 | 100 | 1.7 | 3.5 | 0.00 | 0.00 | 0.00 | 55 | 1008.6 |
| 20260505055003 | 63 | 115 | 1.7 | 2.6 | 0.00 | 0.00 | 0.00 | 55 | 1008.6 |
| 20260505054505 | 63 | 113 | 0.9 | 2.6 | 0.00 | 0.00 | 0.00 | 54 | 1008.6 |
| 20260505054012 | 63 | 110 | 1.7 | 2.6 | 0.00 | 0.00 | 0.00 | 54 | 1008.7 |
| 20260505053504 | 63 | 111 | 0.9 | 2.6 | 0.00 | 0.00 | 0.00 | 54 | 1008.7 |
| 20260505053010 | 63 | 147 | 0.9 | 2.6 | 0.00 | 0.00 | 0.00 | 54 | 1008.7 |
| 20260505052503 | 64 | 134 | 0.9 | 2.6 | 0.00 | 0.00 | 0.00 | 54 | 1008.8 |
| 20260505052011 | 64 | 132 | 1.7 | 2.6 | 0.00 | 0.00 | 0.00 | 53 | 1008.8 |
| 20260505051517 | 64 | 130 | 0.9 | 3.5 | 0.00 | 0.00 | 0.00 | 52 | 1008.8 |
| 20260505051009 | 64 | 184 | 0.9 | 3.5 | 0.00 | 0.00 | 0.00 | 52 | 1008.8 |
| 20260505050506 | 64 | 144 | 0.0 | 3.5 | 0.00 | 0.00 | 0.00 | 52 | 1008.8 |
| 20260505041514 | 64 | 142 | 1.7 | 5.2 | 0.00 | 0.00 | 0.00 | 49 | 1008.6 |
| 20260505041006 | 64 | 167 | 1.7 | 3.5 | 0.00 | 0.00 | 0.00 | 49 | 1008.6 |
| 20260505040506 | 65 | 148 | 0.0 | 4.3 | 0.00 | 0.00 | 0.00 | 49 | 1008.7 |
| 20260505040018 | 65 | 126 | 2.6 | 4.3 | 0.00 | 0.00 | 0.00 | 48 | 1008.6 |
| 20260505035507 | 65 | 168 | 1.7 | 4.3 | 0.00 | 0.00 | 0.00 | 48 | 1008.5 |
| 20260505035007 | 65 | 133 | 2.6 | 4.3 | 0.00 | 0.00 | 0.00 | 48 | 1008.5 |
| 20260505034526 | 65 | 140 | 1.7 | 4.3 | 0.00 | 0.00 | 0.00 | 48 | 1008.4 |
| 20260505034011 | 65 | 160 | 1.7 | 5.2 | 0.00 | 0.00 | 0.00 | 47 | 1008.4 |
| 20260505033510 | 65 | 205 | 1.7 | 5.2 | 0.00 | 0.00 | 0.00 | 47 | 1008.3 |
| 20260505033006 | 66 | 159 | 1.7 | 5.2 | 0.00 | 0.00 | 0.00 | 47 | 1008.3 |
| 20260505032503 | 66 | 171 | 1.7 | 4.3 | 0.00 | 0.00 | 0.00 | 47 | 1008.3 |
| 20260505032005 | 66 | 147 | 1.7 | 5.2 | 0.00 | 0.00 | 0.00 | 46 | 1008.3 |
| 20260505031530 | 66 | 169 | 3.5 | 5.2 | 0.00 | 0.00 | 0.00 | 47 | 1008.2 |
| 20260505031007 | 66 | 142 | 1.7 | 5.2 | 0.00 | 0.00 | 0.00 | 47 | 1008.2 |
| 20260505030508 | 66 | 176 | 1.7 | 5.2 | 0.00 | 0.00 | 0.00 | 46 | 1008.4 |
| 20260505030018 | 66 | 161 | 1.7 | 6.1 | 0.00 | 0.00 | 0.00 | 46 | 1008.4 |
| 20260505025507 | 66 | 158 | 1.7 | 6.1 | 0.00 | 0.00 | 0.00 | 46 | 1008.2 |
| 20260505025009 | 66 | 116 | 2.6 | 6.1 | 0.00 | 0.00 | 0.00 | 47 | 1008.2 |